When you browse on this site, cookies collect data to enhance your experience and personalize the content and advertising you see.
Visit our Privacy Policy to learn more. By continuing to use the site, you agree to this use of cookies and data.
  • In Switzerland
  • List of Countries
  • For 7 days
  • Water Temperature
  • Weather Map
  • Weather Widgets
  • user-avatar
    Login

    Hourly Weather Priselskaya

    Today, 19 August, Monday

    Time Temperature Precipitation Wind Pressure Humidity
    00:00 +14°C° 0 mm 2 mps 740 mmHg 97%
    01:00 +14°C° 0 mm 2 mps 740 mmHg 96%
    02:00 +13°C° 0 mm 1 mps 741 mmHg 96%
    03:00 +13°C° 0 mm 1 mps 741 mmHg 96%
    04:00 +13°C° 0 mm 1 mps 741 mmHg 96%
    05:00 +13°C° 0 mm 1 mps 741 mmHg 95%
    06:00 +14°C° 0 mm 1 mps 742 mmHg 91%
    07:00 +16°C° 0 mm 1 mps 742 mmHg 88%
    08:00 +19°C° 0 mm 1 mps 742 mmHg 82%
    09:00 +19°C° 0 mm 2 mps 742 mmHg 75%
    10:00 +21°C° 0 mm 2 mps 742 mmHg 69%
    11:00 +23°C° 0 mm 2 mps 743 mmHg 62%
    12:00 +24°C° 0 mm 3 mps 743 mmHg 62%
    13:00 +25°C° 0 mm 3 mps 743 mmHg 62%
    14:00 +26°C° 0 mm 3 mps 743 mmHg 62%
    15:00 +25°C° 0 mm 3 mps 743 mmHg 66%
    16:00 +25°C° 0 mm 3 mps 743 mmHg 70%
    17:00 +25°C° 0 mm 2 mps 743 mmHg 74%
    18:00 +23°C° 0 mm 2 mps 743 mmHg 80%
    19:00 +20°C° 0 mm 2 mps 743 mmHg 86%
    20:00 +19°C° 0 mm 2 mps 744 mmHg 91%
    21:00 +19°C° 0 mm 2 mps 744 mmHg 91%
    22:00 +18°C° 0 mm 2 mps 744 mmHg 91%
    23:00 +18°C° 0 mm 3 mps 744 mmHg 90%

    Tomorrow, 20 August, Tuesday

    Time Temperature Precipitation Wind Pressure Humidity
    00:00 +18°C° 0 mm 2 mps 744 mmHg 91%
    01:00 +17°C° 0 mm 2 mps 744 mmHg 92%
    02:00 +17°C° 0 mm 2 mps 744 mmHg 93%
    03:00 +16°C° 0.5 mm 2 mps 744 mmHg 94%
    04:00 +16°C° 0.5 mm 2 mps 744 mmHg 95%
    05:00 +16°C° 0.5 mm 2 mps 745 mmHg 96%
    06:00 +17°C° 0.6 mm 2 mps 745 mmHg 95%
    07:00 +18°C° 0.6 mm 2 mps 745 mmHg 93%
    08:00 +20°C° 0.6 mm 2 mps 745 mmHg 92%
    09:00 +21°C° 0.2 mm 2 mps 745 mmHg 88%
    10:00 +23°C° 0.2 mm 2 mps 746 mmHg 84%
    11:00 +25°C° 0.2 mm 2 mps 746 mmHg 80%
    12:00 +25°C° 0.5 mm 2 mps 746 mmHg 81%
    13:00 +25°C° 0.5 mm 2 mps 746 mmHg 82%
    14:00 +26°C° 0.5 mm 2 mps 746 mmHg 83%
    15:00 +25°C° 0.5 mm 2 mps 746 mmHg 86%
    16:00 +24°C° 0.5 mm 1 mps 746 mmHg 88%
    17:00 +23°C° 0.5 mm 1 mps 746 mmHg 91%
    18:00 +22°C° 0.1 mm 1 mps 746 mmHg 92%
    19:00 +22°C° 0.1 mm 1 mps 746 mmHg 92%
    20:00 +21°C° 0.1 mm 1 mps 746 mmHg 93%
    21:00 +21°C° 0 mm 1 mps 746 mmHg 93%
    22:00 +20°C° 0 mm 1 mps 746 mmHg 94%
    23:00 +20°C° 0 mm 1 mps 746 mmHg 94%

    Day after tomorrow, 21 August, Wednesday

    Time Temperature Precipitation Wind Pressure Humidity
    00:00 +20°C° 0 mm 1 mps 746 mmHg 95%
    01:00 +20°C° 0 mm 1 mps 747 mmHg 95%
    02:00 +19°C° 0 mm 1 mps 747 mmHg 95%
    03:00 +19°C° 0 mm 1 mps 747 mmHg 95%
    04:00 +19°C° 0 mm 1 mps 746 mmHg 96%
    05:00 +19°C° 0 mm 1 mps 746 mmHg 96%
    06:00 +19°C° 0 mm 2 mps 746 mmHg 93%
    07:00 +20°C° 0 mm 2 mps 747 mmHg 91%
    08:00 +21°C° 0 mm 2 mps 747 mmHg 88%
    09:00 +23°C° 0 mm 2 mps 747 mmHg 82%
    10:00 +25°C° 0 mm 3 mps 747 mmHg 75%
    11:00 +26°C° 0 mm 3 mps 747 mmHg 69%
    12:00 +27°C° 0 mm 3 mps 746 mmHg 67%
    13:00 +27°C° 0 mm 3 mps 746 mmHg 65%
    14:00 +28°C° 0 mm 3 mps 746 mmHg 63%
    15:00 +28°C° 0 mm 3 mps 746 mmHg 67%
    16:00 +27°C° 0 mm 3 mps 746 mmHg 70%
    17:00 +27°C° 0 mm 2 mps 745 mmHg 74%
    18:00 +25°C° 0 mm 2 mps 745 mmHg 79%
    19:00 +23°C° 0 mm 2 mps 745 mmHg 84%
    20:00 +21°C° 0 mm 2 mps 745 mmHg 89%
    21:00 +20°C° 0 mm 2 mps 745 mmHg 90%
    22:00 +20°C° 0 mm 2 mps 745 mmHg 91%
    23:00 +19°C° 0 mm 2 mps 745 mmHg 91%

    22 August, Thursday

    Time Temperature Precipitation Wind Pressure Humidity
    00:00 +19°C° 0 mm 2 mps 745 mmHg 91%
    01:00 +19°C° 0 mm 2 mps 745 mmHg 91%
    02:00 +18°C° 0 mm 2 mps 744 mmHg 91%
    03:00 +19°C° 0.4 mm 1 mps 744 mmHg 92%
    04:00 +19°C° 0.4 mm 1 mps 744 mmHg 93%
    05:00 +19°C° 0.4 mm 1 mps 744 mmHg 94%
    06:00 +19°C° 0.5 mm 1 mps 744 mmHg 94%
    07:00 +19°C° 0.5 mm 1 mps 745 mmHg 94%
    08:00 +20°C° 0.5 mm 1 mps 745 mmHg 93%
    09:00 +20°C° 0.3 mm 1 mps 745 mmHg 91%
    10:00 +21°C° 0.3 mm 1 mps 745 mmHg 89%
    11:00 +22°C° 0.3 mm 1 mps 745 mmHg 87%
    12:00 +20°C° 0.3 mm 2 mps 746 mmHg 89%
    13:00 +19°C° 0.3 mm 3 mps 746 mmHg 92%
    14:00 +18°C° 0.3 mm 4 mps 746 mmHg 94%
    15:00 +17°C° 0 mm 4 mps 746 mmHg 94%
    16:00 +17°C° 0 mm 4 mps 746 mmHg 94%
    17:00 +15°C° 0 mm 4 mps 746 mmHg 94%
    18:00 +15°C° 0 mm 4 mps 746 mmHg 93%
    19:00 +16°C° 0 mm 3 mps 746 mmHg 93%
    20:00 +16°C° 0 mm 3 mps 747 mmHg 93%
    21:00 +14°C° 0 mm 3 mps 747 mmHg 94%
    22:00 +14°C° 0 mm 3 mps 747 mmHg 95%
    23:00 +14°C° 0 mm 2 mps 747 mmHg 96%

    23 August, Friday

    Time Temperature Precipitation Wind Pressure Humidity
    00:00 +14°C° 0 mm 2 mps 747 mmHg 96%
    01:00 +14°C° 0 mm 2 mps 747 mmHg 96%
    02:00 +13°C° 0 mm 2 mps 747 mmHg 96%
    03:00 +13°C° 0 mm 2 mps 747 mmHg 97%
    04:00 +13°C° 0 mm 2 mps 747 mmHg 97%
    05:00 +13°C° 0 mm 2 mps 747 mmHg 97%
    06:00 +14°C° 0 mm 2 mps 747 mmHg 93%
    07:00 +14°C° 0 mm 3 mps 748 mmHg 89%
    08:00 +17°C° 0 mm 3 mps 748 mmHg 84%
    09:00 +18°C° 0 mm 3 mps 748 mmHg 78%
    10:00 +20°C° 0 mm 3 mps 748 mmHg 71%
    11:00 +21°C° 0 mm 3 mps 748 mmHg 64%
    12:00 +21°C° 0.1 mm 3 mps 748 mmHg 62%
    13:00 +22°C° 0.1 mm 3 mps 748 mmHg 60%
    14:00 +22°C° 0.1 mm 3 mps 748 mmHg 59%
    15:00 +22°C° 0 mm 3 mps 748 mmHg 61%
    16:00 +21°C° 0 mm 2 mps 748 mmHg 64%
    17:00 +21°C° 0 mm 2 mps 748 mmHg 66%
    18:00 +19°C° 0 mm 2 mps 748 mmHg 71%
    19:00 +17°C° 0 mm 2 mps 749 mmHg 75%
    20:00 +15°C° 0 mm 2 mps 749 mmHg 79%
    21:00 +14°C° 0 mm 1 mps 749 mmHg 82%
    22:00 +14°C° 0 mm 1 mps 749 mmHg 85%
    23:00 +13°C° 0 mm 1 mps 749 mmHg 88%

    24 August, Saturday

    Time Temperature Precipitation Wind Pressure Humidity
    00:00 +13°C° 0 mm 1 mps 749 mmHg 89%
    01:00 +12°C° 0 mm 1 mps 749 mmHg 89%
    02:00 +12°C° 0 mm 1 mps 749 mmHg 90%
    03:00 +12°C° 0 mm 1 mps 750 mmHg 91%
    04:00 +11°C° 0 mm 1 mps 750 mmHg 91%
    05:00 +11°C° 0 mm 1 mps 750 mmHg 92%
    06:00 +13°C° 0 mm 1 mps 750 mmHg 85%
    07:00 +15°C° 0 mm 1 mps 750 mmHg 79%
    08:00 +18°C° 0 mm 1 mps 750 mmHg 72%
    09:00 +20°C° 0 mm 1 mps 750 mmHg 67%
    10:00 +21°C° 0 mm 1 mps 751 mmHg 61%
    11:00 +23°C° 0 mm 1 mps 751 mmHg 56%
    12:00 +23°C° 0 mm 1 mps 751 mmHg 54%
    13:00 +24°C° 0 mm 1 mps 750 mmHg 53%
    14:00 +24°C° 0 mm 1 mps 750 mmHg 51%
    15:00 +24°C° 0 mm 1 mps 750 mmHg 56%
    16:00 +23°C° 0 mm 1 mps 750 mmHg 61%
    17:00 +23°C° 0 mm 1 mps 750 mmHg 67%
    18:00 +21°C° 0 mm 1 mps 750 mmHg 73%
    19:00 +19°C° 0 mm 1 mps 750 mmHg 79%
    20:00 +15°C° 0 mm 1 mps 750 mmHg 86%
    21:00 +14°C° 0 mm 0 mps 750 mmHg 87%
    22:00 +13°C° 0 mm 0 mps 750 mmHg 88%
    23:00 +13°C° 0 mm 0 mps 750 mmHg 90%
    Show more